HIMAWARI-8

Last updated on Sun Dec 07 2025 00:02:22 GMT+0000 (Coordinated Universal Time)

1 40267U 14060A 25340.57906950 -.00000269 00000+0 00000+0 0 9991 2 40267 0.0515 138.7422 0001346 147.5251 138.4860 1.00269734 40824
UTC large
Height (km)
Speed (km/s)
/
Latitude / Longitude
Inclination (degrees)
Orbital Period (minutes)
Azimuth
Elevation
Range (km)
Doppler Factor

Next 0 passes for location: London (51.5072 / 0.1276)

Sorry there are no passes over London.